TimeCDT,TemperatureF,Dew PointF,Humidity,Sea Level PressureIn,VisibilityMPH,Wind Direction,Wind SpeedMPH,Gust SpeedMPH,PrecipitationIn,Events,Conditions,WindDirDegrees,DateUTC
12:56 AM,80.1,75.0,85,29.86,10.0,Calm,Calm,-,N/A,,Clear,0,2013-08-27 05:56:00
1:56 AM,80.1,73.9,81,29.83,10.0,South,4.6,-,N/A,,Clear,190,2013-08-27 06:56:00
2:56 AM,80.1,73.0,79,29.81,10.0,SSW,8.1,-,N/A,,Clear,200,2013-08-27 07:56:00
3:56 AM,79.0,72.0,79,29.81,10.0,SSW,5.8,-,N/A,,Clear,200,2013-08-27 08:56:00
4:56 AM,79.0,71.1,77,29.81,10.0,SSW,6.9,-,N/A,,Clear,200,2013-08-27 09:56:00
5:56 AM,77.0,71.1,82,29.81,10.0,SSW,3.5,-,N/A,,Clear,200,2013-08-27 10:56:00
6:56 AM,78.1,71.1,79,29.80,10.0,SSW,4.6,-,N/A,,Clear,200,2013-08-27 11:56:00
7:56 AM,80.1,71.1,74,29.81,10.0,SSW,5.8,-,N/A,,Clear,200,2013-08-27 12:56:00
8:56 AM,82.9,70.0,65,29.79,10.0,SW,10.4,-,N/A,,Clear,230,2013-08-27 13:56:00
9:56 AM,86.0,71.1,61,29.79,10.0,SW,10.4,-,N/A,,Clear,220,2013-08-27 14:56:00
10:56 AM,88.0,71.1,57,29.80,10.0,WNW,10.4,-,N/A,,Clear,290,2013-08-27 15:56:00
11:56 AM,89.1,72.0,57,29.80,10.0,West,5.8,-,N/A,,Clear,280,2013-08-27 16:56:00
12:56 PM,91.0,72.0,53,29.79,10.0,NW,8.1,-,N/A,,Clear,310,2013-08-27 17:56:00
1:56 PM,93.0,73.0,52,29.78,10.0,WNW,8.1,-,N/A,,Clear,300,2013-08-27 18:56:00
2:56 PM,93.0,72.0,50,29.77,10.0,Calm,Calm,-,N/A,,Partly Cloudy,0,2013-08-27 19:56:00
3:56 PM,93.9,73.0,51,29.77,10.0,Variable,3.5,-,N/A,,Scattered Clouds,0,2013-08-27 20:56:00
4:56 PM,90.0,77.0,65,29.78,10.0,North,9.2,-,N/A,,Scattered Clouds,10,2013-08-27 21:56:00
5:56 PM,89.1,77.0,67,29.80,10.0,NNE,9.2,-,N/A,,Mostly Cloudy,20,2013-08-27 22:56:00
6:56 PM,84.9,75.0,72,29.81,10.0,NNE,8.1,-,N/A,,Overcast,20,2013-08-27 23:56:00
7:56 PM,82.9,75.0,77,29.83,10.0,NNE,4.6,-,N/A,,Mostly Cloudy,20,2013-08-28 00:56:00
8:56 PM,81.0,73.9,79,29.85,10.0,NNE,4.6,-,N/A,,Partly Cloudy,20,2013-08-28 01:56:00
9:56 PM,79.0,73.0,82,29.86,10.0,NNE,4.6,-,N/A,,Clear,20,2013-08-28 02:56:00
10:56 PM,75.9,72.0,87,29.88,10.0,North,3.5,-,N/A,,Clear,10,2013-08-28 03:56:00
11:56 PM,75.0,72.0,90,29.88,10.0,NNE,3.5,-,N/A,,Clear,20,2013-08-28 04:56:00